Location: Unspecified
(0.0000°N, 0.0000°E)
Time: 11:02:40
(UTC+00:00)

Envisat - Pass Details

Date: 13 February 2019
Orbit: 764 x 766 km, 98.2° (Epoch: 23 April)

Event Time Altitude Azimuth Distance (km) Brightness Sun altitude
Rises 19:37:38 0° 183° (S) 3,228 6.5 -20.3°
Reaches altitude 10° 19:40:04 10° 191° (S) 2,300 5.8 -20.9°
Maximum altitude 19:44:44 37° 258° (WSW) 1,168 4.5 -22.0°
Drops below altitude 10° 19:49:22 10° 325° (NW) 2,292 5.7 -23.1°
Sets 19:51:49 0° 333° (NNW) 3,216 6.4 -23.7°
